Location: Bauen
(46.9356°N, 8.5784°E)
Time: 06:01:17
(UTC+00:00)

NOSS 2-1 (E) - Pass Details

Date: 18 February 2020
Orbit: 450 x 1753 km, 63.3° (Epoch: 27 March)

Event Time Altitude Azimuth Distance (km) Brightness Sun altitude
Exits shadow 04:17:37 41° 7° (N) 718 3.9 -22.6°
Drops below altitude 10° 04:20:25 10° 33° (NNE) 1,776 6.4 -22.1°
Sets 04:22:52 0° 38° (NE) 2,805 7.6 -21.7°
